TimeEDT,TemperatureF,Dew PointF,Humidity,Sea Level PressureIn,VisibilityMPH,Wind Direction,Wind SpeedMPH,Gust SpeedMPH,PrecipitationIn,Events,Conditions,WindDirDegrees,DateUTC
12:14 AM,-9999,-9999,N/A,30.18,10.0,Calm,Calm,-,N/A,,Clear,0,2013-06-22 04:14:00
12:34 AM,64.9,61.3,88,30.18,10.0,Calm,Calm,-,N/A,,Clear,0,2013-06-22 04:34:00
12:53 AM,63.0,62.8,99,30.19,10.0,Calm,Calm,-,N/A,,Clear,0,2013-06-22 04:53:00
1:14 AM,64.6,62.6,93,30.19,10.0,Calm,Calm,-,N/A,,Clear,0,2013-06-22 05:14:00
1:34 AM,61.9,61.9,100,30.19,10.0,Calm,Calm,-,N/A,,Clear,0,2013-06-22 05:34:00
1:54 AM,62.2,62.4,100,30.18,10.0,Calm,Calm,-,N/A,,Clear,0,2013-06-22 05:54:00
2:14 AM,61.2,61.3,100,30.18,10.0,Calm,Calm,-,N/A,,Clear,0,2013-06-22 06:14:00
2:33 AM,61.7,61.7,100,30.18,10.0,Calm,Calm,-,N/A,,Clear,0,2013-06-22 06:33:00
2:54 AM,60.8,60.8,100,30.17,10.0,Calm,Calm,-,N/A,,Clear,0,2013-06-22 06:54:00
3:14 AM,61.3,60.3,96,30.16,10.0,Calm,Calm,-,N/A,,Clear,0,2013-06-22 07:14:00
3:33 AM,60.3,60.3,100,30.15,10.0,Calm,Calm,-,N/A,,Clear,0,2013-06-22 07:33:00
3:54 AM,59.9,60.1,100,30.15,10.0,Calm,Calm,-,N/A,,Clear,0,2013-06-22 07:54:00
4:14 AM,59.5,59.7,100,30.15,10.0,Calm,Calm,-,N/A,,Clear,0,2013-06-22 08:14:00
4:33 AM,59.4,59.5,100,30.15,10.0,Calm,Calm,-,N/A,,Clear,0,2013-06-22 08:33:00
4:54 AM,59.0,59.2,100,30.15,10.0,Calm,Calm,-,N/A,,Clear,0,2013-06-22 08:54:00
5:14 AM,59.4,59.5,100,30.14,10.0,Calm,Calm,-,N/A,,Clear,0,2013-06-22 09:14:00
5:33 AM,61.2,61.0,99,30.14,10.0,South,3.5,-,N/A,,Clear,170,2013-06-22 09:33:00
5:54 AM,63.7,60.1,88,30.15,10.0,Calm,Calm,-,N/A,,Clear,0,2013-06-22 09:54:00
6:14 AM,65.3,57.2,75,30.15,10.0,Calm,Calm,-,N/A,,Clear,0,2013-06-22 10:14:00
6:33 AM,64.8,57.4,77,30.15,10.0,Calm,Calm,-,N/A,,Clear,0,2013-06-22 10:33:00
6:54 AM,65.5,57.7,76,30.16,10.0,Calm,Calm,-,N/A,,Clear,0,2013-06-22 10:54:00
7:14 AM,65.7,59.2,80,30.16,10.0,Calm,Calm,-,N/A,,Clear,0,2013-06-22 11:14:00
7:33 AM,67.1,59.7,77,30.17,10.0,Calm,Calm,-,N/A,,Clear,0,2013-06-22 11:33:00
7:54 AM,68.9,60.4,74,30.18,10.0,Calm,Calm,-,N/A,,Clear,0,2013-06-22 11:54:00
8:14 AM,70.3,60.6,71,30.18,10.0,South,3.5,-,N/A,,Clear,190,2013-06-22 12:14:00
8:33 AM,71.6,60.4,68,30.18,10.0,SSW,3.5,-,N/A,,Clear,200,2013-06-22 12:33:00
8:54 AM,73.0,61.0,66,30.18,10.0,South,5.8,-,N/A,,Clear,180,2013-06-22 12:54:00
9:14 AM,74.5,61.3,63,30.18,10.0,SSW,5.8,-,N/A,,Clear,210,2013-06-22 13:14:00
9:33 AM,75.4,61.9,63,30.18,10.0,WSW,5.8,-,N/A,,Clear,240,2013-06-22 13:33:00
9:54 AM,76.1,62.4,62,30.19,10.0,SSW,6.9,-,N/A,,Clear,200,2013-06-22 13:54:00
10:14 AM,77.2,63.0,61,30.19,10.0,SW,8.1,-,N/A,,Clear,230,2013-06-22 14:14:00
10:33 AM,78.1,62.8,59,30.19,10.0,WSW,9.2,-,N/A,,Clear,240,2013-06-22 14:33:00
10:53 AM,79.0,63.1,58,30.19,10.0,SW,6.9,-,N/A,,Clear,230,2013-06-22 14:53:00
11:14 AM,80.2,63.1,56,30.19,10.0,WSW,4.6,-,N/A,,Clear,250,2013-06-22 15:14:00
11:33 AM,81.1,62.8,53,30.19,10.0,WSW,6.9,-,N/A,,Clear,250,2013-06-22 15:33:00
11:53 AM,81.1,62.6,53,30.19,10.0,West,8.1,-,N/A,,Scattered Clouds,260,2013-06-22 15:53:00
12:14 PM,82.9,62.4,50,30.19,10.0,WSW,8.1,-,N/A,,Scattered Clouds,240,2013-06-22 16:14:00
12:34 PM,83.5,63.3,50,30.18,10.0,South,5.8,-,N/A,,Clear,190,2013-06-22 16:34:00
12:53 PM,84.0,62.8,49,30.17,10.0,Calm,Calm,-,N/A,,Clear,0,2013-06-22 16:53:00
1:14 PM,84.2,63.1,49,30.17,10.0,West,8.1,-,N/A,,Scattered Clouds,260,2013-06-22 17:14:00
1:33 PM,84.2,63.5,50,30.16,10.0,WSW,5.8,-,N/A,,Clear,240,2013-06-22 17:33:00
1:54 PM,84.4,64.0,50,30.16,10.0,SSW,5.8,-,N/A,,Scattered Clouds,200,2013-06-22 17:54:00
2:14 PM,84.2,64.4,51,30.15,10.0,SSW,4.6,-,N/A,,Mostly Cloudy,200,2013-06-22 18:14:00
2:33 PM,85.3,63.5,48,30.15,10.0,SSW,5.8,-,N/A,,Scattered Clouds,200,2013-06-22 18:33:00
2:54 PM,85.3,63.9,49,30.15,10.0,SW,6.9,-,N/A,,Scattered Clouds,220,2013-06-22 18:54:00
3:14 PM,86.0,64.4,48,30.15,10.0,WSW,5.8,-,N/A,,Scattered Clouds,240,2013-06-22 19:14:00
3:33 PM,86.0,63.5,47,30.14,10.0,WSW,10.4,-,N/A,,Scattered Clouds,250,2013-06-22 19:33:00
3:54 PM,85.5,63.7,48,30.12,10.0,SSW,5.8,-,N/A,,Scattered Clouds,210,2013-06-22 19:54:00
4:14 PM,85.1,64.4,50,30.12,10.0,SSW,6.9,-,N/A,,Mostly Cloudy,200,2013-06-22 20:14:00
4:33 PM,85.5,63.7,48,30.11,10.0,SW,5.8,-,N/A,,Scattered Clouds,220,2013-06-22 20:33:00
4:54 PM,85.6,64.0,48,30.10,10.0,Calm,Calm,-,N/A,,Scattered Clouds,0,2013-06-22 20:54:00
5:14 PM,85.6,62.8,46,30.09,10.0,SW,4.6,-,N/A,,Clear,220,2013-06-22 21:14:00
5:34 PM,86.0,63.3,47,30.09,10.0,SSW,4.6,-,N/A,,Scattered Clouds,210,2013-06-22 21:34:00
5:53 PM,84.7,63.3,48,30.08,10.0,Calm,Calm,-,N/A,,Scattered Clouds,0,2013-06-22 21:53:00
6:14 PM,84.2,62.8,48,30.07,10.0,SSW,8.1,-,N/A,,Scattered Clouds,200,2013-06-22 22:14:00
6:33 PM,84.2,63.1,49,30.08,10.0,South,3.5,-,N/A,,Scattered Clouds,190,2013-06-22 22:33:00
6:54 PM,84.2,63.3,49,30.09,10.0,SW,5.8,-,N/A,,Clear,230,2013-06-22 22:54:00
7:14 PM,83.7,62.8,49,30.09,10.0,SSW,3.5,-,N/A,,Clear,210,2013-06-22 23:14:00
7:33 PM,82.9,63.3,51,30.08,10.0,SSW,4.6,-,N/A,,Clear,210,2013-06-22 23:33:00
7:54 PM,82.6,63.1,52,30.08,10.0,SSW,3.5,-,N/A,,Clear,210,2013-06-22 23:54:00
8:14 PM,82.2,62.8,52,30.09,10.0,SW,4.6,-,N/A,,Scattered Clouds,230,2013-06-23 00:14:00
8:33 PM,81.7,62.8,53,30.09,10.0,SW,3.5,-,N/A,,Mostly Cloudy,220,2013-06-23 00:33:00
8:54 PM,80.6,62.6,54,30.10,10.0,WSW,3.5,-,N/A,,Scattered Clouds,240,2013-06-23 00:54:00
9:14 PM,78.6,62.8,58,30.10,10.0,Calm,Calm,-,N/A,,Clear,0,2013-06-23 01:14:00
9:33 PM,76.3,63.9,65,30.10,10.0,Calm,Calm,-,N/A,,Clear,0,2013-06-23 01:33:00
9:54 PM,77.4,63.1,61,30.10,10.0,Calm,Calm,-,N/A,,Clear,0,2013-06-23 01:54:00
10:14 PM,77.9,63.3,61,30.11,10.0,SSW,3.5,-,N/A,,Clear,210,2013-06-23 02:14:00
10:33 PM,77.4,63.1,61,30.11,10.0,Calm,Calm,-,N/A,,Clear,0,2013-06-23 02:33:00
10:54 PM,77.0,63.5,63,30.12,10.0,Calm,Calm,-,N/A,,Clear,0,2013-06-23 02:54:00
11:14 PM,75.7,64.0,67,30.12,10.0,Calm,Calm,-,N/A,,Clear,0,2013-06-23 03:14:00
11:33 PM,73.0,63.9,73,30.12,10.0,Calm,Calm,-,N/A,,Clear,0,2013-06-23 03:33:00
11:54 PM,72.0,64.2,77,30.12,10.0,Calm,Calm,-,N/A,,Clear,0,2013-06-23 03:54:00